Location: Bothwell
(42.3833°S, 147.0000°E)
Time: 05:29:30
(UTC+10:00)

DIWATA 2B (PO-101) - Visible Passes

Search period start: 25 September 2022 00:00
Search period end: 05 October 2022 01:00
Orbit: 584 x 597 km, 98.0° (Epoch: 24 September)

Date Brightness Start Highest point End Pass type
(mag) Time Alt. Az. Time Alt. Az. Time Alt. Az.
25 Sep ? 02:19:26 10° SE 02:20:18 14° SE 02:20:18 14° SE visible
25 Sep ? 03:54:36 10° S 03:56:52 24° SSW 03:56:52 24° SSW visible
26 Sep ? 02:27:25 10° SE 02:28:44 17° SE 02:28:44 17° SE visible
26 Sep ? 04:02:59 10° SSW 04:05:18 22° SW 04:05:18 22° SW visible
27 Sep ? 02:35:28 10° SSE 02:37:11 21° SE 02:37:11 21° SE visible
27 Sep ? 04:11:24 10° SSW 04:13:45 20° SW 04:13:45 20° SW visible
28 Sep ? 02:43:32 10° SSE 02:45:38 26° SE 02:45:38 26° SE visible
28 Sep ? 04:19:53 10° SSW 04:22:11 17° SW 04:22:11 17° SW visible
29 Sep ? 02:51:39 10° SSE 02:54:03 31° SE 02:54:03 31° SE visible
29 Sep ? 04:28:27 10° SSW 04:30:37 15° WSW 04:30:37 15° WSW visible
30 Sep ? 02:59:47 10° SSE 03:02:29 37° SSE 03:02:29 37° SSE visible
30 Sep ? 04:37:11 10° SW 04:38:56 12° WSW 04:39:03 12° WSW visible
01 Oct ? 03:07:57 10° SSE 03:10:55 44° SSE 03:10:55 44° SSE visible
01 Oct ? 04:46:32 10° SW 04:47:01 10° WSW 04:47:29 10° WSW visible
02 Oct ? 04:16:08 10° S 04:19:21 51° S 04:19:21 51° S visible
03 Oct ? 04:24:22 10° S 04:27:46 53° SSW 04:27:46 53° SSW visible
04 Oct ? 02:58:53 10° ESE 02:59:38 12° ESE 02:59:38 12° ESE visible
04 Oct ? 04:32:35 10° S 04:36:11 50° SW 04:36:11 50° SW visible
